Miami Beach, Florida, United States (33109)
Lat: 25.79N, Lon: 80.13W
Wx Zone: FLZ173
Local Info
Past Weather Observations for Friday, September 23, 2016

NOTE: This archive is for the closest National Weather Service station to Miami Beach. Information may differ from the station used for current weather conditions.

Click here for Long-term Archive

Time Weather Temperature Dewpoint Humidity Pressure Winds Precip Visibility
23:53
Mostly Cloudy
79°F / 26°C 77°F / 25°C 94% 30.01 in
(1016 mb)
Calm - 10SM
22:53
Mostly Cloudy
77°F / 25°C 75°F / 24°C 94% 30.01 in
(1016 mb)
Calm - 10SM
21:53
Overcast
79°F / 26°C 77°F / 25°C 94% 30.04 in
(1017 mb)
Calm - 10SM
20:53
Overcast
79°F / 26°C 77°F / 25°C 94% 30.01 in
(1016 mb)
NE 4.6 mph
(NE 7 kph)
0.01 in
(0.25 mm)
10SM
20:24
Overcast
79°F / 26°C 75°F / 24°C 89% 30.01 in
(1016 mb)
Calm 0.01 in
(0.25 mm)
10SM
19:53
Overcast
Thunder Storms
81°F / 27°C 73°F / 23°C 79% 30.01 in
(1016 mb)
N 8.1 mph
(N 13 kph)
0.00 in
(0.00 mm)
5SM
19:19
Overcast
Thunder Storms
84°F / 29°C 75°F / 24°C 74% 29.98 in
(1015 mb)
SSW 3.5 mph
(SSW 6 kph)
- 10SM
19:00
Mostly Cloudy
Thunder Storms
84°F / 29°C 75°F / 24°C 74% 29.98 in
(1015 mb)
Calm - 10SM
18:53
Mostly Cloudy
Thunder Storms
84°F / 29°C 75°F / 24°C 74% 29.98 in
(1015 mb)
Calm - 10SM
18:43
Mostly Cloudy
Thunder Storms
84°F / 29°C 75°F / 24°C 74% 29.98 in
(1015 mb)
SSE 3.5 mph
(SSE 6 kph)
- 10SM
17:53
Clear
84°F / 29°C 75°F / 24°C 74% 29.98 in
(1015 mb)
SE 5.8 mph
(SE 9 kph)
- 10SM
16:53
Mostly Cloudy
84°F / 29°C 75°F / 24°C 74% 29.98 in
(1015 mb)
SE 4.6 mph
(SE 7 kph)
- 10SM
15:53
Mostly Cloudy
84°F / 29°C 75°F / 24°C 74% 29.95 in
(1014 mb)
SE 8.1 mph
(SE 13 kph)
- 10SM
14:53
Mostly Cloudy
82°F / 28°C 75°F / 24°C 79% 29.98 in
(1015 mb)
SE 3.5 mph
(SE 6 kph)
0.00 in
(0.00 mm)
10SM
13:53
Mostly Cloudy
Light Rain
79°F / 26°C 75°F / 24°C 89% 29.98 in
(1015 mb)
SSE 4.6 mph
(SSE 7 kph)
0.13 in
(3.30 mm)
10SM
13:07
Mostly Cloudy
Thunder Storms
79°F / 26°C 73°F / 23°C 84% 30.01 in
(1016 mb)
W 9.2 mph
(W 15 kph)
0.06 in
(1.52 mm)
7SM
12:53
Mostly Cloudy
Thunder Storms
81°F / 27°C 77°F / 25°C 89% 30.01 in
(1016 mb)
SSW 13.8 mph
(SSW 22 kph)
0.00 in
(0.00 mm)
10SM
12:30
Mostly Cloudy
Thunder Storms
86°F / 30°C 75°F / 24°C 70% 30.01 in
(1016 mb)
E 10.4 mph
(E 17 kph)
- 10SM
12:14
Mostly Cloudy
Thunder Storms
88°F / 31°C 73°F / 23°C 62% 30.01 in
(1016 mb)
ESE 6.9 mph
(ESE 11 kph)
- 10SM
11:53
Mostly Cloudy
Cumulonimbus Clouds Observed
90°F / 32°C 73°F / 23°C 59% 30.01 in
(1016 mb)
Calm - 10SM
11:46
Mostly Cloudy
Cumulonimbus Clouds Observed
88°F / 31°C 73°F / 23°C 62% 30.01 in
(1016 mb)
E 3.5 mph
(E 6 kph)
- 10SM
11:31
Mostly Cloudy
Thunder Storms
88°F / 31°C 72°F / 22°C 59% 30.01 in
(1016 mb)
Calm - 10SM
10:53
Mostly Cloudy
Partly Cloudy
88°F / 31°C 73°F / 23°C 62% 30.04 in
(1017 mb)
Variable 3.5 mph
(Variable 6 kph)
- 10SM
09:53
Mostly Cloudy
Partly Cloudy
86°F / 30°C 73°F / 23°C 66% 30.04 in
(1017 mb)
Calm - 10SM
08:53
Partly Cloudy
86°F / 30°C 75°F / 24°C 70% 30.04 in
(1017 mb)
Calm - 10SM
07:53
Partly Cloudy
82°F / 28°C 75°F / 24°C 79% 30.01 in
(1016 mb)
NNW 3.5 mph
(NNW 6 kph)
- 10SM
06:53
Partly Cloudy
79°F / 26°C 73°F / 23°C 84% 30.01 in
(1016 mb)
Calm - 10SM
05:53
Partly Cloudy
77°F / 25°C 72°F / 22°C 83% 29.98 in
(1015 mb)
Calm - 10SM
04:53
Partly Cloudy
77°F / 25°C 72°F / 22°C 83% 29.98 in
(1015 mb)
Calm - 10SM
03:53
Partly Cloudy
77°F / 25°C 72°F / 22°C 83% 29.98 in
(1015 mb)
Calm - 10SM
02:53
Partly Cloudy
77°F / 25°C 72°F / 22°C 83% 29.98 in
(1015 mb)
Calm - 10SM
01:53
Partly Cloudy
79°F / 26°C 72°F / 22°C 79% 29.98 in
(1015 mb)
NNW 3.5 mph
(NNW 6 kph)
- 10SM
00:53
Partly Cloudy
79°F / 26°C 73°F / 23°C 84% 29.98 in
(1015 mb)
NNW 4.6 mph
(NNW 7 kph)
- 10SM
Time Weather Temperature Dewpoint Humidity Pressure Winds Precip Visibility


Weather for websites

WeatherForYou.com, LLC is not responsible for any damages or problems caused by this service. Current weather conditions are obtained from the closest station including government and personal stations which may have varying degrees of accuracy. Weather forecasts are derived from the NOAA NDFD. Like all things, this site belongs to Jesus Christ... He just trusts us to maintain it. If you have any questions or comments email webmaster@weatherforyou.com

Copyright © 2016, WeatherForYou.com LLC. All rights reserved.